[[{"header":{"parameterUnit":"m.s-1","parameterCategory":1,"la1":30.2991,"la2":30.254,"lo1":-89.0895,"lo2":-89.0444,"dy":0.0017,"dx":0.0017,"nx":28,"ny":28,"refTime":"2024-06-11T09:00:00:Z","depth":0,"parameterNumber":2,"parameterNumberName":"U-component_of_WINDS"},"data":[0,0,0,0,0,0,0,0,0,0,0,0,0,0,0,0,0,0,0,0,0,0,0,0,0,0,0,0,0,0,0,0,0,0,0,0,0,0,0,0,0,0,0,0,0,0,0,0,0,0,0,0,0,0,0,0,0,0,-2.1979,-2.1979,0,-2.1945,-2.1945,-2.1945,-2.1877,-2.1876,-2.1874,-2.1873,-2.1841,-2.1841,-2.1842,0,0,0,0,0,0,0,0,0,0,0,0,0,-2.1988,-2.1988,-2.1979,-2.1979,-2.1978,-2.1945,-2.1945,-2.1945,-2.1877,-2.1876,-2.1874,-2.1873,-2.1841,-2.1841,-2.1842,0,0,0,0,0,0,0,0,0,0,0,0,0,-2.1972,-2.1988,-2.1979,-2.1941,-2.1937,-2.1946,-2.1945,-2.1944,-2.1878,-2.1876,-2.1874,-2.1872,-2.1841,-2.1841,-2.1842,-2.1886,0,0,-2.1844,-2.1844,0,0,0,0,0,0,0,0,-2.1973,-2.1972,-2.1947,-2.1943,-2.1939,-2.1913,-2.1936,-2.1925,-2.1878,-2.19,-2.1873,-2.1871,-2.1867,-2.1865,-2.1863,-2.1884,-2.1883,-2.1844,-2.1844,-2.1844,-2.1844,0,0,0,0,0,0,0,-2.1974,-2.1973,-2.1966,-2.1947,-2.1942,-2.1926,-2.1922,-2.1934,-2.1895,-2.1898,-2.1893,-2.189,-2.1864,-2.1863,-2.1862,-2.1882,-2.1844,-2.1844,-2.1845,-2.1845,-2.1939,-2.1941,0,0,0,0,0,0,-2.1981,-2.1974,-2.1967,-2.1965,-2.1951,-2.1927,-2.1922,-2.1924,-2.1895,-2.1889,-2.1892,-2.1887,-2.1863,-2.1861,-2.1861,-2.1911,-2.1844,-2.1845,-2.1845,-2.1936,-2.1939,-2.1941,0,0,0,0,0,0,-2.1981,-2.198,-2.1968,-2.1968,-2.1965,-2.1929,-2.1931,-2.1924,-2.1923,-2.189,-2.1883,-2.1897,-2.1861,-2.186,-2.188,-2.1909,-2.1845,-2.1846,-2.1934,-2.1937,-2.194,-2.2011,0,0,0,0,0,0,-2.1981,-2.1981,-2.1997,-2.1969,-2.1966,-2.1988,-2.1933,-2.1925,-2.1923,-2.1917,-2.1893,-2.1888,-2.186,-2.188,-2.1881,-2.1908,-2.1846,-2.1931,-2.1935,-2.1939,-2.2006,-2.2016,-2.2025,0,0,0,0,0,-2.1982,-2.2019,-2.1998,-2.1997,-2.1984,-2.1989,-2.1988,-2.1954,-2.1926,-2.1942,-2.1921,-2.1888,-2.1905,-2.1882,-2.1883,-2.1911,-2.1929,-2.1934,-2.1939,-2.2002,-2.2014,-2.2025,0,0,0,0,0,0,-2.2051,-2.2014,-2.1991,-2.2019,-2.2008,-2.1978,-2.1997,-2.1968,-2.1965,-2.1959,-2.1918,-2.1914,-2.194,-2.1927,-2.1902,-2.1953,-2.1912,-2.1917,-2.196,-2.1971,-2.1981,-2.1984,-2.1847,0,0,0,0,0,-2.207,-2.2076,-2.2044,-2.2072,-2.2067,-2.2034,-2.2034,-2.2009,-2.1996,-2.1991,-2.1972,-2.1961,-2.1964,-2.1967,-2.1968,-2.2004,-2.1998,-2.2024,-2.2033,-2.2041,-2.2047,-2.2065,-2.2077,-2.1957,-2.1957,-2.1957,0,0,-2.2108,-2.2089,-2.2095,-2.2085,-2.2074,-2.2082,-2.203,-2.2041,-2.2047,-2.1993,-2.2011,-2.1997,-2.1982,-2.2011,-2.2022,-2.2001,-2.2078,-2.2047,-2.2054,-2.2055,-2.2072,-2.2083,-2.2093,-2.196,-2.196,-2.1959,0,0,-2.2183,-2.2168,-2.219,-2.218,-2.2162,-2.214,-2.2145,-2.212,-2.2108,-2.2125,-2.2085,-2.2092,-2.2098,-2.2089,-2.2085,-2.2157,-2.2127,-2.2159,-2.2209,-2.2228,-2.2237,-2.2245,-2.2272,-2.2282,-2.2164,-2.2164,-2.2164,0,-2.2233,-2.2243,-2.2206,-2.2219,-2.2216,-2.2168,-2.219,-2.2182,-2.2166,-2.2166,-2.2142,-2.2149,-2.2135,-2.2161,-2.2179,-2.2177,-2.2183,-2.2161,-2.2239,-2.2247,-2.2254,-2.2278,-2.2288,-2.2168,-2.2168,-2.2167,-2.2167,0,-2.2306,-2.2314,-2.2334,-2.232,-2.2319,-2.2337,-2.2303,-2.2307,-2.2283,-2.2263,-2.2281,-2.2264,-2.226,-2.2265,-2.2241,-2.2288,-2.2275,-2.2246,-2.2204,-2.227,-2.2292,-2.2301,-2.2174,-2.2172,-2.2171,-2.217,0,0,-2.2424,-2.2388,-2.2396,-2.2389,-2.2367,-2.2373,-2.2389,-2.2385,-2.239,-2.2381,-2.2394,-2.24,-2.2373,-2.2369,-2.2343,-2.236,-2.2419,-2.2328,-2.2328,-2.2347,-2.2471,-2.2494,-2.2505,-2.2399,-2.24,-2.2402,-2.2472,0,-2.2494,-2.2519,-2.2486,-2.2518,-2.2526,-2.248,-2.2494,-2.2482,-2.2464,-2.2469,-2.2449,-2.2454,-2.2417,-2.2415,-2.2429,-2.2409,-2.2444,-2.2403,-2.2412,-2.2413,-2.2418,-2.2517,-2.2541,-2.2609,-2.2481,-2.2482,-2.2483,0,-2.2578,-2.2573,-2.2607,-2.2582,-2.2584,-2.2598,-2.2592,-2.2596,-2.2582,-2.2568,-2.2564,-2.2534,-2.2549,-2.2508,-2.2529,-2.2503,-2.2504,-2.2495,-2.2497,-2.2497,-2.2453,-2.2521,-2.2629,-2.264,-2.2497,-2.2496,-2.2495,0,-2.2662,-2.2663,-2.2683,-2.2678,-2.265,-2.2661,-2.265,-2.2634,-2.2634,-2.2629,-2.2629,-2.2627,-2.2625,-2.2624,-2.2595,-2.2568,-2.262,-2.2577,-2.2609,-2.261,-2.2623,-2.2623,-2.2734,-2.2623,-2.2623,-2.2623,-2.2622,0,-2.2743,-2.2766,-2.272,-2.2733,-2.2757,-2.2719,-2.2744,-2.2729,-2.2715,-2.2724,-2.2684,-2.2694,-2.2654,-2.266,-2.2637,-2.2658,-2.2658,-2.2648,-2.2641,-2.2652,-2.2653,-2.2653,-2.2648,-2.2625,-2.2625,-2.2624,-2.2624,0,-2.2841,-2.281,-2.283,-2.2802,-2.2795,-2.2815,-2.2791,-2.2802,-2.2781,-2.2794,-2.2795,-2.2763,-2.2768,-2.2738,-2.2737,-2.2722,-2.2755,-2.274,-2.276,-2.2756,-2.279,-2.2788,-2.2906,-2.292,-2.2799,-2.2801,-2.2802,0,-2.2895,-2.2911,-2.2885,-2.2888,-2.2879,-2.2885,-2.2884,-2.2848,-2.285,-2.2835,-2.2849,-2.285,-2.2849,-2.286,-2.2837,-2.2837,-2.2822,-2.2864,-2.2822,-2.2832,-2.2824,-2.2824,-2.2826,-2.2873,-2.2874,-2.2876,-2.2877,0,-2.2996,-2.298,-2.298,-2.2976,-2.2977,-2.2972,-2.2965,-2.297,-2.293,-2.2934,-2.2939,-2.2938,-2.2938,-2.294,-2.2936,-2.2925,-2.2895,-2.289,-2.2897,-2.2909,-2.292,-2.2915,-2.2784,-2.2887,-2.2886,-2.2885,-2.2885,-2.2884,-2.3073,-2.3086,-2.307,-2.3072,-2.3062,-2.3057,-2.3066,-2.3046,-2.3049,-2.3045,-2.3024,-2.3032,-2.3019,-2.3009,-2.3002,-2.3009,-2.2989,-2.3,-2.3003,-2.3006,-2.3013,-2.2918,-2.3007,-2.3007,-2.3007,-2.3006,-2.3006,0,-2.3172,-2.316,-2.3162,-2.3153,-2.3155,-2.3125,-2.3116,-2.312,-2.3128,-2.3117,-2.3117,-2.3123,-2.3125,-2.3103,-2.3102,-2.3112,-2.3099,-2.3114,-2.3113,-2.3111,-2.303,-2.3024,-2.3125,-2.3125,-2.3125,-2.3125,-2.3125,-2.3125,-2.3224,-2.3244,-2.3227,-2.3242,-2.3229,-2.3236,-2.3234,-2.3229,-2.322,-2.3228,-2.3229,-2.3214,-2.3199,-2.3198,-2.3199,-2.3192,-2.3195,-2.3215,-2.3204,-2.3128,-2.3117,-2.3106,-2.31,-2.3215,-2.3215,-2.3284,-2.3285,-2.3285]},{"header":{"parameterUnit":"m.s-1","parameterCategory":1,"la1":30.2991,"la2":30.254,"lo1":-89.0895,"lo2":-89.0444,"dy":0.0017,"dx":0.0017,"nx":28,"ny":28,"refTime":"2024-06-11T09:00:00:Z","depth":0,"parameterNumber":3,"parameterNumberName":"V-component_of_WINDS"},"data":[0,0,0,0,0,0,0,0,0,0,0,0,0,0,0,0,0,0,0,0,0,0,0,0,0,0,0,0,0,0,0,0,0,0,0,0,0,0,0,0,0,0,0,0,0,0,0,0,0,0,0,0,0,0,0,0,0,0,-1.1506,-1.1507,0,-1.154,-1.154,-1.154,-1.1535,-1.1535,-1.1534,-1.1533,-1.1567,-1.1569,-1.157,0,0,0,0,0,0,0,0,0,0,0,0,0,-1.1438,-1.144,-1.1506,-1.1507,-1.1507,-1.154,-1.154,-1.154,-1.1535,-1.1535,-1.1534,-1.1533,-1.1567,-1.1569,-1.157,0,0,0,0,0,0,0,0,0,0,0,0,0,-1.1469,-1.144,-1.1506,-1.1509,-1.1509,-1.1539,-1.154,-1.1541,-1.1535,-1.1535,-1.1534,-1.1533,-1.1566,-1.1568,-1.1571,-1.1601,0,0,-1.1577,-1.1578,0,0,0,0,0,0,0,0,-1.1468,-1.1472,-1.1508,-1.1508,-1.1509,-1.1532,-1.1529,-1.1561,-1.1536,-1.1525,-1.1533,-1.1532,-1.1556,-1.1559,-1.1567,-1.1602,-1.1604,-1.1577,-1.1579,-1.158,-1.158,0,0,0,0,0,0,0,-1.1466,-1.1471,-1.152,-1.1508,-1.1509,-1.1508,-1.1511,-1.1535,-1.1545,-1.1526,-1.1526,-1.153,-1.1557,-1.1565,-1.1568,-1.1604,-1.1577,-1.1579,-1.158,-1.1581,-1.1667,-1.1668,0,0,0,0,0,0,-1.1463,-1.1469,-1.1518,-1.1521,-1.1486,-1.151,-1.1514,-1.1526,-1.1545,-1.1547,-1.1531,-1.153,-1.1562,-1.1566,-1.1569,-1.1607,-1.158,-1.1582,-1.1583,-1.1666,-1.1667,-1.1669,0,0,0,0,0,0,-1.1461,-1.1467,-1.1517,-1.1495,-1.1501,-1.1512,-1.1525,-1.1527,-1.1536,-1.1548,-1.155,-1.1538,-1.1562,-1.1566,-1.1593,-1.1609,-1.1582,-1.1584,-1.1665,-1.1667,-1.1668,-1.1683,0,0,0,0,0,0,-1.1459,-1.1467,-1.1478,-1.1495,-1.1502,-1.1541,-1.1526,-1.1528,-1.1539,-1.1538,-1.1555,-1.1557,-1.1561,-1.159,-1.1596,-1.1611,-1.1586,-1.1664,-1.1666,-1.1668,-1.1681,-1.1685,-1.1688,0,0,0,0,0,-1.1457,-1.1481,-1.1479,-1.1485,-1.1517,-1.1542,-1.1546,-1.155,-1.1541,-1.1553,-1.1561,-1.1557,-1.1606,-1.1593,-1.1599,-1.1615,-1.1663,-1.1665,-1.1667,-1.168,-1.1684,-1.1688,0,0,0,0,0,0,-1.1466,-1.1483,-1.1481,-1.1511,-1.1525,-1.1541,-1.1556,-1.1554,-1.157,-1.1569,-1.1573,-1.1577,-1.1605,-1.1612,-1.1598,-1.1646,-1.1633,-1.1637,-1.1641,-1.1645,-1.1648,-1.1646,-1.1588,0,0,0,0,0,-1.1471,-1.149,-1.1504,-1.1529,-1.1536,-1.1545,-1.1556,-1.1558,-1.1572,-1.1578,-1.1588,-1.1602,-1.1621,-1.1633,-1.165,-1.1682,-1.1686,-1.1696,-1.1699,-1.1702,-1.1706,-1.1724,-1.1729,-1.1676,-1.1676,-1.1676,0,0,-1.1483,-1.1495,-1.1506,-1.1531,-1.1542,-1.1562,-1.155,-1.1571,-1.1586,-1.1581,-1.1608,-1.1615,-1.1631,-1.1661,-1.1675,-1.1669,-1.1721,-1.1705,-1.1707,-1.1709,-1.1727,-1.1732,-1.1736,-1.1677,-1.1677,-1.1677,0,0,-1.1515,-1.1525,-1.1548,-1.1559,-1.1575,-1.1581,-1.1586,-1.1602,-1.1608,-1.1634,-1.1632,-1.1649,-1.168,-1.1692,-1.1703,-1.1739,-1.1736,-1.1744,-1.1762,-1.178,-1.1784,-1.1788,-1.1803,-1.1808,-1.1747,-1.1747,-1.1747,0,-1.1527,-1.1557,-1.156,-1.1581,-1.1593,-1.1589,-1.1613,-1.1623,-1.1645,-1.1653,-1.1645,-1.1686,-1.1696,-1.1729,-1.1738,-1.1746,-1.1753,-1.1743,-1.1784,-1.1787,-1.1791,-1.1805,-1.181,-1.1748,-1.1748,-1.1748,-1.1748,0,-1.1572,-1.1592,-1.1609,-1.163,-1.1643,-1.1666,-1.1672,-1.1685,-1.1685,-1.1692,-1.172,-1.1732,-1.1753,-1.176,-1.176,-1.1794,-1.1789,-1.1782,-1.177,-1.1797,-1.181,-1.1815,-1.175,-1.1749,-1.1749,-1.1749,0,0,-1.1611,-1.1634,-1.164,-1.165,-1.1668,-1.1684,-1.1706,-1.1727,-1.1739,-1.1753,-1.1773,-1.1799,-1.1794,-1.1805,-1.1807,-1.1822,-1.1852,-1.1814,-1.1814,-1.1822,-1.1891,-1.1897,-1.1903,-1.1849,-1.185,-1.1851,-1.189,0,-1.1646,-1.1686,-1.1689,-1.1725,-1.1745,-1.1742,-1.1761,-1.1774,-1.1781,-1.1798,-1.1805,-1.1825,-1.1815,-1.1822,-1.1837,-1.1845,-1.1866,-1.1842,-1.1869,-1.187,-1.1867,-1.191,-1.1917,-1.1953,-1.1895,-1.1896,-1.1896,0,-1.1692,-1.1709,-1.1747,-1.1763,-1.1772,-1.1789,-1.1809,-1.1825,-1.184,-1.1844,-1.1857,-1.1856,-1.1879,-1.1864,-1.1897,-1.1881,-1.1891,-1.1897,-1.1898,-1.1903,-1.1886,-1.1917,-1.1964,-1.197,-1.1904,-1.1904,-1.1903,0,-1.1719,-1.1751,-1.1778,-1.1787,-1.1806,-1.1819,-1.1827,-1.1841,-1.1854,-1.187,-1.1878,-1.1897,-1.1908,-1.1923,-1.1928,-1.1916,-1.1961,-1.1945,-1.1965,-1.1965,-1.1976,-1.1976,-1.2028,-1.198,-1.198,-1.198,-1.198,0,-1.1759,-1.1783,-1.1791,-1.1808,-1.1835,-1.1838,-1.1865,-1.1872,-1.1885,-1.1904,-1.1901,-1.1919,-1.1923,-1.1942,-1.1945,-1.1973,-1.1977,-1.1981,-1.1982,-1.1983,-1.1982,-1.1991,-1.199,-1.1981,-1.1981,-1.1981,-1.198,0,-1.1795,-1.1801,-1.1831,-1.1847,-1.1851,-1.187,-1.1884,-1.19,-1.1906,-1.193,-1.1935,-1.1945,-1.1966,-1.1972,-1.1997,-1.2,-1.2033,-1.203,-1.2028,-1.2029,-1.2049,-1.2048,-1.211,-1.2119,-1.2063,-1.2064,-1.2064,0,-1.1821,-1.1839,-1.1857,-1.1869,-1.1879,-1.1898,-1.1911,-1.1915,-1.1928,-1.1947,-1.1961,-1.1983,-1.2,-1.2035,-1.2044,-1.2064,-1.2063,-1.2083,-1.2066,-1.2066,-1.2066,-1.2065,-1.2068,-1.2087,-1.2088,-1.2088,-1.2089,0,-1.1867,-1.1869,-1.1887,-1.1907,-1.1923,-1.1938,-1.1953,-1.1964,-1.1969,-1.1984,-1.2007,-1.202,-1.2047,-1.2068,-1.2088,-1.2097,-1.2094,-1.2094,-1.21,-1.2101,-1.21,-1.2103,-1.2039,-1.2093,-1.2092,-1.2092,-1.2092,-1.2092,-1.19,-1.1916,-1.1932,-1.1953,-1.1965,-1.1979,-1.1996,-1.2003,-1.2022,-1.2044,-1.2045,-1.2069,-1.2084,-1.2111,-1.2121,-1.214,-1.2134,-1.2142,-1.2145,-1.2147,-1.215,-1.2095,-1.2143,-1.2143,-1.2143,-1.2143,-1.2143,0,-1.1947,-1.1957,-1.1976,-1.1998,-1.2014,-1.2009,-1.2026,-1.204,-1.2062,-1.2076,-1.2093,-1.2119,-1.214,-1.2151,-1.2172,-1.2185,-1.2185,-1.2191,-1.2191,-1.2193,-1.2153,-1.2147,-1.2191,-1.2191,-1.2191,-1.2191,-1.2191,-1.2191,-1.1974,-1.2003,-1.2007,-1.2042,-1.2051,-1.2075,-1.2085,-1.2099,-1.211,-1.2139,-1.2157,-1.2163,-1.2176,-1.2198,-1.2217,-1.222,-1.2228,-1.2236,-1.2238,-1.2201,-1.2196,-1.2191,-1.2185,-1.2237,-1.2237,-1.2276,-1.2277,-1.2277]}]]